Weather History for St. Paul, MN

Change the Weather History Date:

Wednesday, May 9, 2012

  Actual Average Record
Temperature  
Mean Temperature 54 °F -  
Max Temperature 64 °F 65 °F 89 °F (2004)
Min Temperature 45 °F 44 °F 36 °F (1999)
Degree Days  
Heating Degree Days 10    
Growing Degree Days 4 (Base 50)    
Moisture  
Dew Point 41 °F    
Average Humidity 61    
Maximum Humidity 93    
Minimum Humidity 33    
Precipitation  
Precipitation 0.00 in - - ()
Sea Level Pressure  
Sea Level Pressure 30.02 in    
Wind  
Wind Speed 6 mph (North)    
Max Wind Speed 10 mph    
Max Gust Speed 16 mph    
Visibility 10 miles    
Events      
Averages and records for this station are not official NWS values.
T = Trace of Precipitation, MM = Missing Value Source: NWS Daily Summary

Daily Weather History Graph

Daily Weather History Graph

Search for Another Location

Airport:

Trip Planner

Search our weather history database for the weather conditions in past years. The results will help you decide how hot, cold, wet, or windy it might be!

Date:

Astronomy

May. 09, 2012 Rise Set
Actual Time 5:49 AM CDT 8:28 PM CDT
Civil Twilight 5:16 AM CDT 9:01 PM CDT
Nautical Twilight 4:34 AM CDT 9:43 PM CDT
Astronomical Twilight 3:46 AM CDT 10:32 PM CDT
Moon No Moon Rise 9:03 AM CDT (5/9)
Length of Visible Light 15h 45m
Length of Day
14h 38m
Waning Gibbous, 82% of the Moon is Illuminated
May 9
Waning Gibbous
May 12
Last Quarter
May 20
New
May 28
First Quarter
Jun 4
Full

Hourly Weather History & Observations

Time (CDT) Temp. Windchill Dew Point Humidity Pressure Visibility Wind Dir Wind Speed Gust Speed Precip Events Conditions
12:53 AM 51.1 °F - 46.0 °F 83% 29.99 in 10.0 mi North 9.2 mph - N/A   Overcast
1:53 AM 50.0 °F - 45.0 °F 83% 29.99 in 10.0 mi North 9.2 mph - N/A   Mostly Cloudy
2:53 AM 50.0 °F - 45.0 °F 83% 30.00 in 10.0 mi North 6.9 mph - N/A   Overcast
3:53 AM 50.0 °F - 45.0 °F 83% 30.02 in 10.0 mi North 5.8 mph - N/A   Overcast
4:53 AM 48.9 °F - 45.0 °F 86% 30.03 in 10.0 mi NNW 5.8 mph - N/A   Mostly Cloudy
5:53 AM 45.0 °F 41.8 °F 43.0 °F 93% 30.04 in 10.0 mi NW 5.8 mph - N/A   Clear
6:53 AM 48.0 °F - 45.0 °F 89% 30.06 in 10.0 mi NNW 5.8 mph - N/A   Clear
7:53 AM 51.1 °F - 45.0 °F 80% 30.07 in 10.0 mi North 4.6 mph - N/A   Partly Cloudy
8:53 AM 54.0 °F - 43.0 °F 66% 30.08 in 10.0 mi NNE 10.4 mph - N/A   Scattered Clouds
9:53 AM 55.9 °F - 43.0 °F 62% 30.08 in 10.0 mi North 8.1 mph - N/A   Scattered Clouds
10:00 AM 55.4 °F - 42.8 °F 63% 30.07 in 10.0 mi Variable 5.8 mph - N/A   Mostly Cloudy
10:14 AM 55.4 °F - 41.0 °F 58% 30.07 in 10.0 mi North 8.1 mph - N/A   Scattered Clouds
10:53 AM 57.9 °F - 42.1 °F 56% 30.08 in 10.0 mi Variable 5.8 mph - N/A   Scattered Clouds
11:53 AM 59.0 °F - 39.0 °F 48% 30.06 in 10.0 mi Variable 3.5 mph - N/A   Scattered Clouds
12:53 PM 61.0 °F - 35.1 °F 38% 30.04 in 10.0 mi Variable 4.6 mph - N/A   Scattered Clouds
1:53 PM 62.1 °F - 36.0 °F 38% 30.02 in 10.0 mi NE 8.1 mph - N/A   Scattered Clouds
2:53 PM 63.0 °F - 35.1 °F 35% 30.01 in 10.0 mi Calm Calm - N/A   Clear
3:53 PM 64.4 °F - 35.6 °F 34% 29.99 in 10.0 mi NNW 8.1 mph - N/A   Mostly Cloudy
4:53 PM 64.9 °F - 37.0 °F 36% 29.98 in 10.0 mi Variable 5.8 mph 16.1 mph N/A   Partly Cloudy
5:53 PM 64.0 °F - 34.0 °F 33% 29.96 in 10.0 mi Calm Calm - N/A   Partly Cloudy
6:53 PM 64.9 °F - 36.0 °F 34% 29.96 in 10.0 mi Calm Calm - N/A   Clear
7:53 PM 63.0 °F - 36.0 °F 37% 29.95 in 10.0 mi Variable 3.5 mph - N/A   Clear
8:53 PM 57.0 °F - 41.0 °F 55% 29.96 in 10.0 mi Calm Calm - N/A   Clear
9:53 PM 55.9 °F - 41.0 °F 57% 29.97 in 10.0 mi Calm Calm - N/A   Clear
10:53 PM 54.0 °F - 43.0 °F 66% 29.96 in 10.0 mi Calm Calm - N/A   Clear
11:53 PM 51.1 °F - 44.1 °F 77% 29.96 in 10.0 mi Calm Calm - N/A   Clear